Weather History for Palm Springs, CA

Change the Weather History Date:

Friday, May 24, 2013

  Actual Average Record
Temperature  
Mean Temperature 79 °F 81 °F  
Max Temperature 93 °F 96 °F 115 °F (1952)
Min Temperature 65 °F 67 °F 48 °F (1960)
Degree Days  
Heating Degree Days 0 0  
Month to date heating degree days 0 0  
Since 1 July heating degree days 760 872  
Cooling Degree Days 14 16  
Month to date cooling degree days 392 319  
Year to date cooling degree days 922 639  
Growing Degree Days 28 (Base 50)    
Moisture  
Dew Point 40 °F    
Average Humidity 33    
Maximum Humidity 52    
Minimum Humidity 13    
Precipitation  
Precipitation 0.00 in 0.00 in 0.00 in (2015)
Month to date precipitation T 0.12  
Year to date precipitation 0.97 2.87  
Since 1 July precipitation 2.19 5.67  
Snow  
Snow 0.00 in - - ()
Month to date snowfall 0.0  
Year to date snowfall 0.0  
Since 1 July snowfall 0.0  
Snow Depth 0.00 in    
Sea Level Pressure  
Sea Level Pressure 29.79 in    
Wind  
Wind Speed 6 mph (NW)    
Max Wind Speed 18 mph    
Max Gust Speed 24 mph    
Visibility 10 miles    
Events      
T = Trace of Precipitation, MM = Missing Value Source: NWS Daily Summary

Daily Weather History Graph

Daily Weather History Graph

Search for Another Location

Airport:

Trip Planner

Search our weather history database for the weather conditions in past years. The results will help you decide how hot, cold, wet, or windy it might be!

Date:

Astronomy

May. 24, 2013 Rise Set
Actual Time 5:39 AM PDT 7:46 PM PDT
Civil Twilight 5:11 AM PDT 8:15 PM PDT
Nautical Twilight 4:36 AM PDT 8:49 PM PDT
Astronomical Twilight 3:59 AM PDT 9:26 PM PDT
Moon 7:35 PM PDT (5/24) 5:12 AM PDT (5/24)
Length of Visible Light 15h 04m
Length of Day
14h 07m
Full, 100% of the Moon is Illuminated
May 24
Full
May 24
Full
May 31
Last Quarter
Jun 8
New
Jun 16
First Quarter

Hourly Weather History & Observations

Time (PDT) Temp. Dew Point Humidity Pressure Visibility Wind Dir Wind Speed Gust Speed Precip Events Conditions
12:53 AM 71.1 °F 45.0 °F 39% 29.74 in 10.0 mi NW 12.7 mph 19.6 mph N/A   Clear
1:53 AM 70.0 °F 44.1 °F 39% 29.75 in 10.0 mi West 3.5 mph - N/A   Clear
2:53 AM 66.9 °F 46.0 °F 47% 29.76 in 10.0 mi NW 4.6 mph - N/A   Clear
3:53 AM 66.9 °F 45.0 °F 45% 29.77 in 10.0 mi West 5.8 mph - N/A   Clear
4:53 AM 66.0 °F 45.0 °F 47% 29.78 in 10.0 mi NW 8.1 mph - N/A   Clear
5:53 AM 64.9 °F 46.0 °F 50% 29.80 in 10.0 mi WNW 4.6 mph - N/A   Clear
6:53 AM 66.0 °F 48.0 °F 52% 29.82 in 10.0 mi SE 3.5 mph - N/A   Clear
7:53 AM 70.0 °F 45.0 °F 41% 29.84 in 10.0 mi Calm Calm - N/A   Clear
8:53 AM 73.0 °F 44.1 °F 35% 29.85 in 10.0 mi Variable 3.5 mph - N/A   Clear
9:53 AM 77.0 °F 39.9 °F 26% 29.85 in 10.0 mi Calm Calm - N/A   Clear
10:53 AM 84.0 °F 37.0 °F 19% 29.85 in 10.0 mi Calm Calm - N/A   Clear
11:53 AM 84.9 °F 30.9 °F 14% 29.84 in 10.0 mi Variable 3.5 mph - N/A   Clear
12:53 PM 87.1 °F 32.0 °F 14% 29.83 in 10.0 mi Variable 4.6 mph - N/A   Clear
1:53 PM 89.1 °F 34.0 °F 14% 29.81 in 10.0 mi Variable 3.5 mph - N/A   Clear
2:53 PM 90.0 °F 34.0 °F 14% 29.80 in 10.0 mi NNW 15.0 mph 24.2 mph N/A   Clear
3:53 PM 91.9 °F 33.1 °F 12% 29.77 in 10.0 mi NNW 11.5 mph 19.6 mph N/A   Clear
4:53 PM 91.9 °F 34.0 °F 13% 29.75 in 10.0 mi NNW 12.7 mph - N/A   Clear
5:53 PM 89.1 °F 37.9 °F 16% 29.74 in 10.0 mi NW 15.0 mph 21.9 mph N/A   Clear
6:53 PM 86.0 °F 37.9 °F 18% 29.75 in 10.0 mi NW 17.3 mph 25.3 mph N/A   Clear
7:53 PM 82.0 °F 41.0 °F 23% 29.75 in 10.0 mi NW 20.7 mph 27.6 mph N/A   Clear
8:53 PM 79.0 °F 44.1 °F 29% 29.78 in 10.0 mi NW 24.2 mph 31.1 mph N/A   Clear
9:53 PM 77.0 °F 41.0 °F 28% 29.79 in 10.0 mi NW 16.1 mph 24.2 mph N/A   Clear
10:53 PM 75.9 °F 39.0 °F 26% 29.80 in 10.0 mi NW 13.8 mph - N/A   Clear
11:53 PM 73.9 °F 42.1 °F 32% 29.79 in 10.0 mi NW 11.5 mph - N/A   Clear